Location: München
(48.1351°N, 11.5820°E)
Time: 04:59:28
(UTC+02:00)

ISS - Pass Details

Date: 20 May 2021
Orbit: 417 x 422 km, 51.6° (Epoch: 13 June)

Event Time Altitude Azimuth Distance (km) Brightness Sun altitude
Rises 22:54:39 0° 277° (W) 2,364 0.7 -15.3°
Reaches altitude 10° 22:56:48 10° 284° (WNW) 1,501 -0.3 -15.5°
Maximum altitude 23:00:03 44° 358° (N) 596 -2.6 -15.7°
Drops below altitude 10° 23:03:18 10° 72° (ENE) 1,504 -1.1 -16.0°
Enters shadow 23:04:12 - 76° (ENE) 1,856 -0.6 -16.1°
